Погода в Аюттхае

Таиланд     14°19′37″N   100°36′28″E
темп.,
°C
ветер,
м/с
пор.,
м/с
влажн.,
%
обл.,
%
осадки,
мм/ч
давл.,
гПа
погр.,
м
16 апреля, пт
пт1601:00+29ююз3668100 0.1 1008292
04:00+28ю2569100 0.0 1007185
07:00+29ю356657 0.0 1009396
10:00+34ю444755 0.0 10101401
13:00+37ю433675 0.1 10072695
16:00+35юз464292 0.1 10041384
19:00+33ю3545100 0.2 1006109
22:00+30ю5961100 0.1 1009505
17 апреля, сб
сб1701:00+28ю3673100 4.3 1009151
04:00+28ююз2477100 0.9 1008142
07:00+28юз2267100 1.0 1010136
10:00+31зюз3352100 0.9 1012994
13:00+35юз2340100 0.9 10091904
16:00+35ю1237100 0.1 10062208
19:00+32з6853100 0.2 1009887
22:00+27зюз237499 1.8 1012110
18 апреля, вс
вс1801:00+27вюв127546 2.1 101156
04:00+26в1280100 0.0 100972
07:00+27з117536 0.0 1011186
10:00+32зюз115591 0.0 10121194
13:00+35зюз234099 0.1 10082344
16:00+33юз2245100 0.9 10061075
19:00+31зюз355692 0.9 1008190
22:00+26ююв5684100 3.1 1010214
19 апреля, пн
пн1901:00+26ю2481100 4.4 1008126
04:00+26зюз25827 1.2 1008172
07:00+26юз3477100 1.3 1009191
10:00+32юз345235 0.0 10101162
13:00+36зюз343367 0.0 10072352
16:00+37зюз4528100 0.0 10042911
19:00+32ююз6104687 0.0 1005396
22:00+30ю595798 0.0 1007460
20 апреля, вт
вт2001:00+28ююз365738 0.0 1007196
04:00+27ююз3461100 0.0 1006128
07:00+27юз466758 0.0 1008330
10:00+32зюз334667 0.0 10091091
13:00+37юз23315 0.0 10062296
16:00+38зюз23255 0.0 10043037
19:00+34ю583522 0.0 1005354
22:00+30ю610555 0.0 1008614